Regional Weather Roundup
Issued by NWS

Home | Current Version | Previous Version | Text Only | Print | Product List | Glossary Off
Versions: 1 2 3 4 5 6 7 8 9 10 11 12 13 14 15 16 17 18 19 20 21 22 23 24 25 26 27 28 29 30 31 32 33 34 35 36 37 38 39 40 41 42 43 44 45 46 47 48 49 50

000
ASUS44 KMEG 180000
RWRTN
TENNESSEE HOURLY STATE WEATHER ROUNDUP
NATIONAL WEATHER SERVICE MEMPHIS TN
600 PM CST WED DEC 17 2014

TNZ002-004-019-021-049-052-054-088>092-180100-
WEST TENNESSEE

CITY           SKY/WX    TMP DP  RH WIND       PRES   REMARKS
MEMPHIS INTL   CLOUDY    40  32  73 N8        30.25F WCI  34
NWS MEMPHIS      N/A     39 N/A N/A MISG        N/A
JACKSON        CLOUDY    37  30  75 N3        30.28S
DYERSBURG      PTCLDY    37  19  48 CALM      30.31R
UNION CITY     CLEAR     34  28  80 N3        30.27S
PARIS          CLEAR     32  27  80 CALM      30.28R
LEXINGTON      CLEAR     36  28  75 N5        30.26R WCI  32
SAVANNAH       CLEAR     37  30  75 N3        30.26S
$$

TNZ008-025-027-028-033-062-065-066-180100-
NORTH MIDDLE TENNESSEE

CITY           SKY/WX    TMP DP  RH WIND       PRES   REMARKS
NASHVILLE      MOCLDY    37  29  72 NW3       30.27R
CLARKSVILLE    PTCLDY    37  27  67 NW3       30.27R
COOKEVILLE     CLEAR     34  30  86 CALM      30.22S
CROSSVILLE     CLOUDY    35  29  78 W3        30.20R
$$

TNZ061-075-076-078-094-096-097-180100-
SOUTH MIDDLE TENNESSEE

CITY           SKY/WX    TMP DP  RH WIND       PRES   REMARKS
FAYETTEVILLE   CLEAR     36  28  75 MISG      30.23S
TULLAHOMA      CLEAR     36  30  80 CALM      30.23S
WINCHESTER     MOCLDY    36  30  80 CALM      30.24S
SHELBYVILLE    CLEAR     36  32  87 NE3       30.25S
$$

TNZ017-018-042-046-047-180100-
NORTHEAST TENNESSEE

CITY           SKY/WX    TMP DP  RH WIND       PRES   REMARKS
TRI CITIES     MOCLDY    37  31  78 SW8       30.17R WCI  31
ELIZABETHTON   CLEAR     36  30  80 W3        30.16R
$$

TNZ012-013-036-069-073-074-180100-
CENTRAL EAST TENNESSEE

CITY           SKY/WX    TMP DP  RH WIND       PRES   REMARKS
KNOXVILLE      CLOUDY    41  34  76 W6        30.21R
OAK RIDGE      CLOUDY    42  31  64 CALM      30.22R
GATLINBURG     CLEAR     37  34  87 CALM      30.21R
$$

TNZ083-085-099-180100-
SOUTHEAST TENNESSEE

CITY           SKY/WX    TMP DP  RH WIND       PRES   REMARKS
CHATTANOOGA    CLOUDY    43  34  70 N9        30.22R
$$

SKY/WX REPORTED AS FAIR MEANS FEW OR NO CLOUDS BELOW
12 THOUSAND FEET.



USA.gov is the U.S. government's official web portal to all federal, state and local government web resources and services.